{"data":{"norad_id":63344,"intl_designator":"2025-059A","name":"YUNYAO-1 43","alt_names":[],"object_type":"PAYLOAD","status":"ACTIVE","operator":null,"country":"PRC","launch_date":"2025-03-21","launch_site_code":"JSC","launch_vehicle":null,"mission":null,"orbit_class":"UNKNOWN","rcs_meters":null,"size_class":null,"mass_kg":null,"dimensions":null,"purposes":[],"wikipedia_slug":null,"has_3d_model":false,"image_url":null,"decayed_at":null,"tle_current":{"epoch":"2026-05-25T04:07:23.805120Z","epoch_age_seconds":56362,"freshness":"FRESH","line1":"1 63344U 25059A   26145.17180330  .00003140  00000+0  19245-3 0  9993","line2":"2 63344  97.6110 326.6623 0013381 229.3083 130.6985 15.10840893 64828","mean_motion":15.10840893,"eccentricity":0.0013381,"inclination_deg":97.611,"raan_deg":326.6623,"arg_perigee_deg":229.3083,"mean_anomaly_deg":130.6985,"bstar":0.00019245,"rev_number":6482,"period_min":95.311161266006,"perigee_km":524.3855691991,"apogee_km":542.88285131199,"semimajor_km":6911.7712102555,"source":"CELESTRAK","updated_at":"2026-05-25T13:38:03.656617Z"}}}